weather.gov     
National Weather Service

Terminal Aerodrome Forecast
NWS Homepage
This page is being discontinued on March 12, 2014.
The same data is available at this site. Please update your bookmarks.
Thank you, and we apologize for the inconvenience.
Please send an email to SR-SRH.Webmaster@noaa.gov with any concerns.


Current Version
Previous Version:    01  02  03  04  05  06  07  08  09  10  11  12  13  14  15  16  17  18  19  20  21  22  23  24  25  26  27  28  29  30  
   31  32  33  34  35  36  37  38  39  
[Printable]
761
FTUS44 KSHV 021100
TAFELD
TAF
KELD 021126Z 0212/0312 16005KT P6SM OVC006
      TEMPO 0212/0214 3SM BR BKN003
     FM021400 17007KT P6SM BKN015
     FM021500 19009KT P6SM BKN030
     FM021700 19009KT P6SM VCTS SCT045CB
     FM030000 17004KT P6SM FEW060 SCT250
      TEMPO 0310/0312 5SM BR BKN005=


U.S. Dept. of Commerce
NOAA National Weather Service
1325 East West Highway
Silver Spring, MD 20910
E-mail: w-nws.webmaster@noaa.gov
Page last modified: May 16, 2007
NATIONAL WEATHER SERVICE: for Safety, for Work, for Fun - FOR LIFE